Change the Weather History Date:

Wednesday, January 9, 2013

  Actual Average Record
Temperature  
Mean Temperature 51 °F 37 °F  
Max Temperature 55 °F 46 °F 74 °F (1902)
Min Temperature 46 °F 29 °F 0 °F (1988)
Degree Days  
Heating Degree Days 14 28  
Month to date heating degree days 251 252  
Since 1 July heating degree days 1513 1694  
Cooling Degree Days 0 0  
Month to date cooling degree days 0 0  
Year to date cooling degree days 0 0  
Moisture  
Dew Point 45 °F    
Average Humidity 80    
Maximum Humidity 93    
Minimum Humidity 66    
Precipitation  
Precipitation 0.41 in 0.12 in 2.86 in (1946)
Month to date precipitation 0.41 0.96  
Year to date precipitation 0.41 0.96  
Snow  
Snow 0.00 in 0.10 in 8.00 in (1944)
Month to date snowfall 0.0 0.7  
Since 1 July snowfall 6.5 1.3  
Snow Depth 0.00 in    
Sea Level Pressure  
Sea Level Pressure 30.31 in    
Wind  
Wind Speed 9 mph (NE)    
Max Wind Speed 24 mph    
Max Gust Speed 29 mph    
Visibility 8 miles    
Events Rain    
T = Trace of Precipitation, MM = Missing Value Source: NWS Daily Summary

Daily Weather History Graph

Daily Weather History Graph

Search for Another Location

Airport or City:

Trip Planner

Search our weather history database for the weather conditions in past years. The results will help you decide how hot, cold, wet, or windy it might be!

Date:

Astronomy

Jan. 09, 2013 Rise Set
Actual Time 7:13 AM CST 5:06 PM CST
Civil Twilight 6:45 AM CST 5:34 PM CST
Nautical Twilight 6:13 AM CST 6:06 PM CST
Astronomical Twilight 5:42 AM CST 6:37 PM CST
Moon 4:52 AM CST (1/9) 3:08 PM CST (1/9)
Length of Visible Light 10h 49m
Length of Day
9h 53m
Waning Crescent, 6% of the Moon is Illuminated
Jan 9
Waning Crescent
Jan 11
New
Jan 18
First Quarter
Jan 26
Full
Feb 3
Last Quarter

Hourly Weather History & Observations

Time (CST) Temp. Windchill Dew Point Humidity Pressure Visibility Wind Dir Wind Speed Gust Speed Precip Events Conditions
12:44 AM 48.2 °F - 39.2 °F 71% 30.23 in 10.0 mi NE 3.5 mph - N/A   Overcast
12:53 AM 50.0 °F - 39.9 °F 68% 30.23 in 10.0 mi Calm Calm - N/A   Overcast
1:00 AM 50.0 °F - 39.2 °F 66% 30.24 in 10.0 mi Calm Calm - N/A   Overcast
1:19 AM 50.0 °F - 39.2 °F 66% 30.24 in 10.0 mi Calm Calm - N/A   Overcast
1:53 AM 50.0 °F - 39.9 °F 68% 30.24 in 10.0 mi Calm Calm - 0.00 in Rain Light Rain
2:38 AM 46.4 °F - 42.8 °F 87% 30.24 in 10.0 mi Calm Calm - 0.01 in Rain Light Rain
2:45 AM 46.4 °F - 42.8 °F 87% 30.24 in 10.0 mi Calm Calm - 0.01 in Rain Light Rain
2:53 AM 46.9 °F - 44.1 °F 90% 30.24 in 10.0 mi Calm Calm - 0.01 in Rain Light Rain
3:53 AM 46.0 °F - 44.1 °F 93% 30.24 in 9.0 mi Calm Calm - 0.02 in Rain Light Rain
4:34 AM 46.4 °F 45.2 °F 42.8 °F 87% 30.25 in 10.0 mi North 3.5 mph - 0.00 in Rain Light Rain
4:53 AM 46.9 °F - 43.0 °F 86% 30.27 in 10.0 mi North 6.9 mph - 0.01 in Rain Light Rain
5:53 AM 48.0 °F - 43.0 °F 83% 30.30 in 10.0 mi Calm Calm - 0.00 in   Overcast
6:53 AM 46.9 °F - 45.0 °F 93% 30.33 in 5.0 mi Calm Calm - N/A   Overcast
7:24 AM 46.4 °F 45.2 °F 44.6 °F 93% 30.34 in 2.5 mi East 3.5 mph - 0.01 in Rain Light Rain
7:53 AM 46.9 °F - 44.1 °F 90% 30.36 in 2.0 mi NE 6.9 mph - 0.02 in Rain Light Rain
7:59 AM 46.4 °F 42.9 °F 44.6 °F 93% 30.36 in 1.5 mi NNE 6.9 mph - N/A Rain Light Rain
8:12 AM 46.4 °F 41.9 °F 44.6 °F 93% 30.36 in 1.5 mi NNE 9.2 mph - 0.03 in Rain Light Rain
8:24 AM 46.4 °F 41.9 °F 44.6 °F 93% 30.37 in 2.5 mi NE 9.2 mph - 0.04 in Rain Light Rain
8:31 AM 46.4 °F 41.9 °F 44.6 °F 93% 30.36 in 4.0 mi NE 9.2 mph - 0.04 in Rain Light Rain
8:46 AM 48.2 °F - 44.6 °F 87% 30.37 in 6.0 mi NE 6.9 mph - 0.04 in Rain Light Rain
8:53 AM 48.0 °F - 45.0 °F 89% 30.37 in 7.0 mi NE 8.1 mph - 0.04 in Rain Light Rain
9:53 AM 48.2 °F - 44.6 °F 87% 30.37 in 10.0 mi NE 10.4 mph - N/A   Overcast
10:53 AM 48.9 °F - 46.0 °F 90% 30.37 in 10.0 mi ENE 8.1 mph - N/A   Overcast
11:53 AM 50.0 °F - 46.0 °F 86% 30.35 in 10.0 mi ENE 6.9 mph - N/A   Overcast
12:26 PM 51.8 °F - 46.4 °F 82% 30.33 in 10.0 mi NE 10.4 mph - N/A   Scattered Clouds
12:53 PM 52.0 °F - 46.9 °F 83% 30.32 in 10.0 mi ENE 9.2 mph - N/A   Partly Cloudy
1:53 PM 54.0 °F - 46.9 °F 77% 30.31 in 10.0 mi NE 11.5 mph - N/A   Scattered Clouds
2:53 PM 55.0 °F - 46.0 °F 72% 30.32 in 10.0 mi NE 10.4 mph - N/A   Mostly Cloudy
3:53 PM 55.0 °F - 46.9 °F 74% 30.32 in 10.0 mi NE 13.8 mph - N/A   Overcast
4:53 PM 54.0 °F - 46.9 °F 77% 30.32 in 10.0 mi NE 12.7 mph - N/A   Overcast
5:53 PM 54.0 °F - 46.0 °F 75% 30.32 in 10.0 mi NE 16.1 mph - N/A   Overcast
6:53 PM 53.1 °F - 46.0 °F 77% 30.35 in 10.0 mi ENE 15.0 mph - N/A   Overcast
7:53 PM 53.1 °F - 46.0 °F 77% 30.34 in 10.0 mi NE 19.6 mph 25.3 mph N/A   Overcast
8:53 PM 52.0 °F - 46.0 °F 80% 30.33 in 9.0 mi ENE 16.1 mph - 0.01 in Rain Light Rain
9:03 PM 51.8 °F - 46.4 °F 82% 30.33 in 9.0 mi ENE 16.1 mph 23.0 mph N/A Rain Light Rain
9:14 PM 51.8 °F - 46.4 °F 82% 30.34 in 9.0 mi ENE 16.1 mph - 0.01 in Rain Light Rain
9:53 PM 52.0 °F - 46.9 °F 83% 30.34 in 8.0 mi NE 17.3 mph - 0.02 in Rain Light Rain
10:45 PM 50.0 °F - 46.4 °F 87% 30.32 in 3.0 mi NE 24.2 mph 28.8 mph 0.10 in Rain Rain
10:53 PM 50.0 °F - 48.0 °F 93% 30.33 in 3.0 mi NE 17.3 mph 28.8 mph 0.13 in Rain Rain
11:34 PM 50.0 °F - 46.4 °F 87% 30.33 in 4.0 mi ENE 18.4 mph - 0.08 in Rain Rain
11:53 PM 50.0 °F - 48.0 °F 93% 30.32 in 4.0 mi NE 18.4 mph - 0.15 in Rain Light Rain